Location: Luxembourg
(49.6000°N, 6.1500°W)
Time: 22:26:17
(UTC+01:00)

Tiangong 1 - Visible Passes

Search period start: 19 January 2018 00:00
Search period end: 29 January 2018 00:00
Orbit: 263 x 287 km, 42.8° (Epoch: 19 January)

Date Brightness Start Highest point End Pass type
(mag) Time Alt. Az. Time Alt. Az. Time Alt. Az.
19 Jan 2.9 19:29:27 10° SW 19:31:11 17° S 19:32:14 14° SSE visible
20 Jan 3.1 19:29:06 10° SW 19:30:42 16° S 19:32:04 11° SSE visible
21 Jan 3.3 19:28:47 10° SW 19:30:06 13° SSW 19:31:25 10° SSE visible
22 Jan 3.6 19:28:46 10° SSW 19:29:20 11° SSW 19:29:56 10° S visible
